Terminal Aerodrome Forecast
Issued by NWS

Home | Current Version | Previous Version | Text Only | Print | Product List | Glossary On
Versions: 1 2 3 4 5 6 7 8 9 10 11 12 13 14 15 16
000
FTUS42 KMLB 292334
TAFFPR
TAF
KFPR 292334Z 3000/3024 12008KT P6SM VCSH SCT020 BKN040 OVC110
      TEMPO 3000/3002 VRB15G28KT 3SM SHRA BKN020
     FM300300 11011KT P6SM VCSH BKN020 OVC040
     FM300900 12008KT P6SM VCSH SCT020 BKN080
      TEMPO 3009/3013 3SM SHRA BKN020
     FM301300 13013G20KT P6SM SCT020 BKN035 OVC060
      TEMPO 3013/3017 2SM TSRA BKN025CB=

USA.gov is the U.S. government's official web portal to all federal, state and local government web resources and services.